User: anonymous   Login
Location: Unspecified
(0.0000°N, 0.0000°E)
Time: 20:05:35
(UTC+00:00)
Language:

MAROC-TUBSAT - Orbit

View from above orbital plane
View from above orbital plane
View from above satellite
View from above satellite

Ground track
Ground track

The orbit data is extracted from the following two-line orbital elements,

1 27004U 01056D   19341.45515796 -.00000043  00000-0  14535-5 0  9996
2 27004  99.4895 112.4487 0020240 152.9726 282.6134 13.70138013899746
Epoch (UTC): 07 December 2019 10:55:25
Eccentricity: 0.0020240
inclination: 99.4895°
perigee height: 984 km
apogee height: 1014 km
right ascension of ascending node: 112.4487°
argument of perigee: 152.9726°
revolutions per day: 13.70138013
mean anomaly at epoch: 282.6134°
orbit number at epoch: 89974

The dashed part of the orbit path shows where the satellite is in the earth's shadow,  

DLR